Wind_Speed
35 35 34 34 34 33 34 33 32 32 32 32 32 32 31 31 31 30 29 29 28 28 28 27 27 27 27 27 27 26 27 27 26 26 26 25 25 24 24 24 23 23 22
38 38 37 37 37 36 36 35 35 34 34 34 34 34 34 33 32 32 31 30 29 29 29 29 28 28 29 28 28 28 28 28 29 28 28 27 27 27 26 26 25 25 25
41 40 39 39 39 38 38 37 37 36 35 35 35 35 35 35 34 34 33 33 32 32 31 31 31 31 30 30 31 30 30 30 30 30 30 29 29 29 29 28 28 28 27
42 42 41 40 40 40 39 39 39 38 38 37 36 36 36 36 36 35 35 35 34 34 34 33 33 33 32 32 32 32 32 32 32 32 31 31 31 31 31 31 30 30 30
43 43 43 42 42 41 41 40 40 40 40 39 39 38 38 37 37 36 36 36 36 36 36 36 36 36 35 34 33 33 34 34 34 33 33 33 33 32 32 33 33 32 32
45 44 44 44 44 44 44 43 42 42 42 42 41 41 40 39 39 39 39 38 38 38 38 38 37 37 37 36 35 35 35 36 36 35 35 35 35 35 35 35 35 35 34
47 46 46 46 47 46 46 46 45 45 44 44 43 43 42 42 41 41 41 40 40 39 39 39 39 38 38 38 37 36 37 37 37 37 37 37 37 37 37 36 36 36 36
50 49 49 48 49 49 48 48 47 46 46 46 45 45 44 44 43 43 43 43 42 42 41 40 40 40 39 39 39 38 38 38 38 38 38 38 38 38 38 38 37 38 38
51 52 51 50 50 50 49 49 49 48 48 48 47 46 46 46 46 45 45 44 44 44 43 43 42 42 42 42 41 41 41 41 41 40 40 40 40 40 40 40 40 39 39
51 53 53 52 52 52 51 50 51 50 50 50 49 48 48 47 47 46 46 46 46 46 45 45 44 44 44 44 43 43 42 43 43 43 43 42 42 42 41 42 42 42 41
52 53 54 54 54 54 54 53 52 52 51 51 51 50 49 49 48 48 48 48 48 47 47 46 46 46 46 46 46 45 45 44 45 45 45 45 44 44 44 44 44 44 43
52 53 54 55 55 55 55 55 54 54 54 54 53 52 52 51 50 49 49 49 49 49 49 48 48 48 49 48 48 47 47 46 46 46 46 46 46 45 45 45 45 46 46
52 53 54 55 56 56 56 56 56 55 55 56 55 55 54 54 53 52 52 51 51 50 50 50 50 50 50 50 50 49 49 49 48 48 47 47 47 47 47 47 47 47 47
52 53 54 55 56 56 57 57 57 57 56 57 57 56 56 56 55 54 54 54 53 52 52 52 52 52 51 52 52 51 51 51 50 50 49 49 49 49 49 49 49 49 49
52 52 53 54 56 57 58 57 58 58 58 57 58 58 57 57 58 57 57 57 56 55 55 54 55 55 54 54 54 54 53 53 53 52 52 52 52 52 51 51 51 51 52
53 53 53 53 55 57 58 59 59 58 58 58 57 58 58 58 59 59 59 59 59 59 58 56 57 58 57 57 56 56 55 55 55 55 55 55 55 54 54 54 54 53 54
54 55 55 55 55 55 57 58 59 59 59 59 58 58 58 59 59 59 59 59 60 60 60 59 58 59 60 59 59 59 58 57 57 57 57 57 57 56 56 56 56 56 55
55 56 56 56 57 57 57 58 59 59 60 60 60 59 59 59 59 59 59 59 60 60 61 61 60 60 60 61 61 60 60 60 60 60 59 59 59 59 59 59 59 58 57
56 56 57 57 58 59 59 59 60 60 61 61 61 61 61 61 60 61 61 61 61 61 61 61 60 60 61 61 62 61 62 62 62 62 62 61 61 61 61 60 60 59 58
56 57 58 58 58 59 59 60 61 61 62 62 62 63 63 64 63 63 63 63 63 63 62 62 61 61 61 62 62 62 62 63 63 63 63 63 63 63 62 61 61 60 60
56 57 58 58 59 60 60 61 62 62 63 63 63 64 64 63 63 63 63 64 64 64 63 63 62 62 62 62 62 62 63 63 63 63 63 63 63 63 63 62 61 61 61
56 57 58 58 59 60 60 61 62 63 64 64 64 64 64 64 64 64 64 64 64 65 65 65 64 64 64 64 64 65 65 64 64 64 63 63 64 63 63 62 62 62 62
53 55 56 57 58 59 59 60 61 62 63 64 64 64 65 65 65 65 65 64 64 65 65 65 65 65 64 65 65 65 66 66 65 64 64 63 63 63 62 63 63 62 62
52 54 55 56 57 58 59 60 61 62 63 63 64 63 64 64 65 65 65 64 64 65 65 66 65 65 65 65 65 65 65 65 65 64 64 63 62 62 62 62 62 61 61
50 51 53 54 55 56 58 59 61 62 62 63 63 63 64 65 65 65 66 65 65 65 65 64 64 64 64 65 65 65 65 66 65 64 64 63 62 63 62 62 62 62 61
50 50 50 51 52 53 55 57 59 60 60 61 62 62 62 63 64 65 65 65 64 64 64 65 65 64 64 64 64 65 65 65 65 64 63 64 63 63 63 62 62 61 61
Wind_Direction
247 247 246 246 246 247 247 248 249 249 251 252 251 252 252 252 253 254 255 256 256 257 257 258 259 260 260 260 260 262 263 263 263 264 264 265 266 267 268 270 271 274 275
247 247 247 247 247 247 248 249 249 250 251 252 252 252 252 252 253 254 255 255 256 258 259 260 261 262 262 261 261 262 263 264 264 264 264 265 265 266 268 270 271 272 273
247 247 247 248 248 248 249 250 250 250 251 252 253 252 252 252 252 254 255 256 257 258 259 260 261 262 264 264 263 264 264 264 264 265 265 266 266 267 268 269 269 270 272
247 247 247 248 248 249 250 250 250 250 251 252 253 253 253 252 252 253 254 256 257 258 258 260 261 263 264 266 265 264 264 263 263 264 266 266 267 267 267 268 268 269 271
247 247 248 248 248 249 250 251 250 251 251 252 253 254 253 253 253 254 255 255 256 257 259 260 261 263 264 265 265 264 264 264 263 264 265 266 267 268 268 268 267 268 271
247 246 247 248 248 249 250 250 251 251 251 252 253 253 254 254 254 254 256 257 257 258 259 260 260 261 262 263 263 264 264 264 264 263 264 265 267 268 268 268 268 268 269
249 248 248 248 248 249 250 251 251 252 252 252 253 253 254 255 255 255 256 257 258 259 260 260 260 260 260 260 262 262 264 264 264 265 265 266 267 267 268 269 269 269 269
251 250 249 249 249 250 251 251 252 252 252 253 253 253 254 255 256 256 257 257 258 258 259 260 260 259 259 260 261 262 263 264 265 265 266 266 267 267 267 268 269 269 270
251 251 250 250 250 250 251 252 252 252 253 253 254 254 254 255 255 256 257 258 258 259 260 260 260 260 260 261 261 262 263 264 265 266 266 267 267 267 268 268 269 269 270
251 251 250 250 250 250 250 251 252 253 253 253 254 254 255 256 256 257 257 257 258 259 259 260 260 261 261 262 262 263 264 264 265 265 266 266 267 267 267 268 268 269 270
251 251 251 250 251 251 251 252 253 253 253 254 255 256 256 257 257 258 258 258 258 258 259 260 260 261 262 262 263 263 264 264 265 265 265 266 266 267 267 268 268 269 270
251 251 251 251 251 251 251 252 253 253 254 255 255 256 257 258 258 258 258 258 258 258 258 259 261 262 262 262 263 264 264 265 265 265 265 266 266 267 267 268 268 269 270
252 252 251 251 251 251 252 252 253 254 255 256 256 257 257 258 258 259 259 258 259 258 259 260 261 262 262 263 263 264 265 265 265 265 266 266 266 267 268 268 269 269 270
254 254 253 252 252 252 252 252 253 254 255 257 257 257 258 258 258 258 259 259 259 259 260 261 262 262 263 263 264 264 264 264 265 265 266 267 267 268 268 269 269 270 270
255 255 254 253 253 253 253 253 253 254 255 257 258 258 258 258 259 259 260 260 260 260 260 261 261 262 262 263 263 263 264 264 265 265 266 267 267 268 268 269 270 270 270
256 256 256 255 254 253 253 253 254 255 255 256 257 258 258 258 259 259 260 260 260 261 261 261 262 262 261 262 263 263 264 264 265 266 266 267 267 268 269 270 270 271 271
257 257 256 256 255 255 254 254 255 255 255 256 257 258 259 259 259 259 259 260 260 261 262 261 262 262 261 261 262 262 263 264 265 265 266 267 268 269 269 270 271 271 271
258 257 257 257 257 257 256 256 255 255 256 256 257 258 259 260 259 259 260 260 260 261 262 262 262 262 262 262 262 262 263 264 264 265 266 267 267 268 269 270 270 270 270
258 258 258 258 258 258 258 258 257 257 256 257 258 258 259 259 259 259 260 260 261 261 262 262 262 263 263 263 263 262 263 264 264 265 266 266 267 268 268 269 269 269 269
259 259 259 259 259 259 259 259 259 258 258 258 258 259 260 260 260 260 260 261 262 262 262 263 263 263 263 263 263 263 263 263 264 265 266 267 267 268 268 268 268 268 269
260 260 259 259 259 259 260 260 259 259 258 258 259 259 260 261 261 261 261 262 262 262 263 263 263 263 263 263 263 263 263 264 264 265 266 267 267 267 267 267 267 267 268
261 261 260 260 260 260 260 260 260 260 259 259 259 259 259 260 260 261 261 262 262 263 263 263 263 263 263 263 263 263 263 264 265 266 266 266 267 267 267 267 267 267 268
262 262 262 262 261 261 261 261 261 261 260 260 260 260 260 260 260 261 261 262 263 263 264 264 264 264 263 263 263 263 264 265 265 266 266 266 266 266 266 267 267 267 268
265 264 263 263 263 263 263 262 262 262 261 260 260 260 260 260 260 261 261 262 263 263 264 264 264 264 263 263 263 263 264 265 265 265 265 266 266 266 266 267 267 267 268
267 267 265 264 264 263 263 263 262 262 261 261 260 260 260 260 260 261 261 261 262 262 263 263 263 263 262 263 263 264 264 265 265 265 265 265 265 266 266 266 267 267 267
268 268 267 266 265 264 264 263 263 262 261 260 260 259 260 260 260 261 261 262 262 262 262 262 262 262 262 262 263 264 265 265 265 265 265 265 265 265 265 266 266 266 266
Height
5779 5782 5784 5787 5789 5791 5794 5796 5798 5800 5802 5804 5805 5807 5809 5811 5812 5814 5815 5817 5818 5819 5820 5821 5822 5823 5824 5825 5826 5827 5828 5828 5829 5830 5831 5832 5832 5833 5834 5834 5834 5834 5834
5771 5774 5776 5779 5781 5783 5786 5788 5790 5793 5795 5797 5798 5800 5802 5803 5805 5807 5809 5810 5811 5812 5813 5815 5816 5817 5817 5818 5820 5821 5821 5822 5823 5824 5824 5825 5826 5827 5828 5828 5828 5828 5829
5762 5765 5767 5770 5773 5775 5777 5780 5782 5785 5787 5789 5790 5792 5794 5796 5798 5799 5801 5803 5804 5805 5807 5808 5809 5810 5811 5812 5813 5813 5814 5815 5816 5817 5818 5818 5819 5820 5821 5821 5822 5822 5823
5752 5755 5758 5761 5764 5766 5769 5771 5774 5776 5778 5780 5782 5784 5786 5788 5790 5792 5793 5795 5796 5798 5799 5800 5802 5803 5803 5804 5805 5806 5807 5808 5809 5809 5810 5811 5812 5813 5813 5814 5815 5815 5816
5742 5745 5748 5751 5754 5757 5759 5762 5764 5767 5769 5771 5774 5776 5777 5779 5781 5783 5785 5787 5788 5789 5791 5792 5793 5795 5795 5796 5797 5798 5799 5800 5801 5802 5803 5803 5804 5805 5806 5806 5807 5808 5808
5731 5735 5738 5741 5744 5747 5749 5752 5754 5757 5760 5762 5764 5766 5768 5770 5772 5774 5776 5778 5779 5781 5782 5783 5784 5786 5787 5788 5789 5790 5791 5792 5792 5793 5795 5795 5796 5797 5798 5798 5799 5800 5800
5720 5723 5727 5730 5733 5736 5739 5741 5744 5747 5749 5751 5754 5756 5758 5760 5762 5764 5766 5768 5770 5771 5772 5774 5775 5777 5778 5779 5780 5781 5782 5783 5784 5785 5786 5787 5787 5788 5789 5790 5790 5791 5792
5708 5712 5715 5719 5722 5725 5727 5730 5733 5735 5738 5741 5743 5745 5747 5750 5752 5754 5756 5758 5760 5761 5762 5764 5765 5767 5768 5770 5771 5772 5773 5774 5775 5776 5776 5777 5778 5779 5780 5781 5781 5782 5782
5696 5699 5703 5706 5709 5713 5716 5718 5721 5723 5726 5729 5731 5734 5736 5739 5741 5744 5745 5747 5749 5750 5752 5753 5755 5756 5758 5760 5761 5762 5763 5764 5765 5766 5766 5767 5768 5769 5770 5771 5772 5772 5773
5683 5686 5690 5693 5697 5700 5703 5706 5709 5711 5714 5717 5719 5722 5724 5727 5729 5732 5734 5736 5737 5739 5741 5742 5744 5745 5747 5749 5750 5751 5752 5753 5754 5755 5756 5757 5758 5759 5759 5760 5761 5762 5763
5670 5673 5677 5680 5683 5687 5690 5693 5696 5698 5701 5704 5706 5709 5711 5714 5717 5720 5722 5724 5725 5727 5729 5731 5732 5734 5735 5737 5738 5740 5741 5742 5743 5744 5744 5745 5747 5748 5748 5749 5750 5751 5752
5657 5660 5663 5666 5669 5673 5676 5680 5682 5685 5688 5690 5693 5696 5698 5701 5704 5706 5709 5711 5713 5715 5716 5718 5720 5722 5723 5725 5726 5727 5729 5730 5731 5732 5733 5734 5735 5736 5737 5738 5738 5739 5740
5644 5646 5649 5652 5655 5659 5662 5665 5669 5671 5674 5677 5679 5682 5685 5687 5690 5692 5695 5697 5700 5702 5703 5705 5707 5709 5710 5712 5713 5714 5716 5717 5718 5719 5721 5722 5723 5724 5725 5725 5726 5727 5728
5630 5633 5635 5638 5641 5644 5648 5651 5654 5657 5660 5662 5665 5667 5670 5673 5675 5678 5680 5683 5686 5688 5690 5692 5693 5695 5696 5698 5700 5701 5702 5704 5705 5706 5708 5709 5710 5711 5712 5713 5713 5714 5715
5616 5619 5621 5623 5626 5629 5633 5636 5639 5642 5645 5648 5650 5653 5655 5658 5660 5663 5665 5668 5671 5674 5677 5679 5680 5681 5682 5684 5685 5687 5688 5690 5691 5693 5694 5695 5696 5697 5698 5699 5700 5700 5701
5602 5604 5607 5609 5611 5614 5617 5620 5624 5626 5629 5632 5634 5637 5640 5642 5645 5647 5649 5651 5654 5657 5661 5665 5665 5666 5667 5669 5670 5672 5674 5676 5677 5678 5680 5681 5682 5683 5684 5684 5685 5686 5686
5588 5590 5592 5594 5596 5599 5601 5604 5608 5611 5614 5616 5619 5621 5624 5626 5628 5631 5633 5635 5638 5640 5643 5648 5649 5650 5651 5653 5655 5656 5658 5660 5662 5663 5664 5665 5666 5667 5668 5669 5669 5670 5671
5573 5575 5577 5579 5581 5583 5586 5588 5591 5594 5597 5600 5603 5605 5607 5609 5612 5614 5616 5619 5621 5623 5626 5630 5633 5633 5635 5636 5638 5640 5642 5644 5645 5647 5648 5649 5650 5651 5652 5653 5653 5654 5655
5558 5560 5562 5564 5566 5567 5570 5572 5575 5578 5581 5584 5586 5588 5590 5593 5596 5598 5600 5602 5604 5606 5609 5612 5615 5617 5618 5619 5621 5623 5625 5626 5628 5629 5631 5632 5634 5635 5635 5636 5637 5638 5639
5543 5545 5547 5548 5550 5552 5554 5556 5558 5561 5564 5566 5569 5571 5573 5576 5578 5580 5582 5585 5587 5589 5591 5593 5597 5599 5601 5602 5604 5606 5607 5608 5610 5611 5613 5615 5616 5617 5618 5619 5620 5621 5622
5528 5529 5531 5532 5534 5536 5538 5539 5541 5543 5546 5548 5551 5554 5556 5558 5560 5562 5565 5567 5569 5571 5573 5575 5578 5581 5583 5584 5586 5588 5589 5591 5593 5594 5595 5597 5598 5599 5600 5601 5602 5603 5605
5512 5513 5515 5516 5518 5519 5521 5522 5523 5525 5528 5530 5533 5535 5538 5540 5543 5545 5547 5549 5551 5553 5555 5557 5560 5563 5565 5566 5568 5569 5571 5573 5577 5579 5578 5579 5580 5581 5582 5583 5585 5586 5587
5496 5497 5498 5499 5501 5502 5503 5505 5506 5507 5510 5512 5515 5517 5520 5522 5524 5527 5529 5531 5533 5534 5537 5539 5541 5544 5546 5548 5549 5551 5553 5554 5558 5559 5559 5562 5562 5564 5565 5565 5566 5568 5569
5480 5481 5482 5482 5484 5485 5485 5487 5487 5489 5491 5494 5496 5499 5501 5503 5505 5508 5510 5512 5514 5516 5518 5520 5524 5526 5527 5528 5529 5532 5533 5536 5539 5540 5540 5543 5545 5546 5547 5548 5549 5550 5552
5465 5465 5465 5466 5466 5467 5468 5469 5469 5471 5473 5475 5478 5480 5482 5484 5487 5489 5492 5494 5496 5498 5499 5501 5503 5505 5507 5509 5510 5512 5514 5516 5519 5522 5522 5524 5527 5527 5529 5530 5531 5532 5534
5451 5450 5450 5450 5450 5450 5451 5451 5451 5453 5455 5457 5459 5462 5464 5466 5468 5469 5471 5474 5477 5479 5480 5482 5484 5486 5488 5490 5491 5493 5495 5496 5499 5503 5504 5505 5507 5508 5511 5513 5513 5514 5516